QPF
0.01 0.01 0.01 0.01 0.00 0.00 0.00 0.00 0.00 0.00 0.00 0.00 0.00 0.00 0.00 0.00 0.00 0.00 0.00 0.00 0.00 0.00 0.00 0.00 0.00 0.00 0.00 0.00 0.00 0.00 0.00 0.00 0.02 0.02 0.02 0.02 0.01 0.01 0.01 0.01 0.01 0.01 0.01 0.01
0.01 0.01 0.00 0.00 0.01 0.00 0.00 0.00 0.00 0.00 0.00 0.00 0.00 0.00 0.00 0.00 0.00 0.00 0.00 0.00 0.00 0.00 0.00 0.00 0.00 0.00 0.00 0.00 0.01 0.01 0.01 0.01 0.02 0.02 0.02 0.01 0.01 0.01 0.00 0.00 0.01 0.01 0.01 0.02
0.01 0.01 0.00 0.00 0.00 0.01 0.01 0.00 0.00 0.00 0.00 0.00 0.00 0.00 0.00 0.00 0.00 0.00 0.00 0.00 0.00 0.00 0.00 0.00 0.00 0.00 0.00 0.01 0.01 0.01 0.01 0.01 0.02 0.02 0.02 0.02 0.02 0.01 0.01 0.00 0.00 0.01 0.01 0.02
0.00 0.00 0.00 0.00 0.01 0.01 0.01 0.00 0.00 0.00 0.00 0.00 0.00 0.00 0.00 0.00 0.00 0.00 0.00 0.00 0.00 0.00 0.00 0.00 0.00 0.00 0.00 0.01 0.01 0.01 0.01 0.01 0.02 0.03 0.03 0.03 0.02 0.01 0.00 0.00 0.00 0.01 0.01 0.01
0.01 0.00 0.00 0.00 0.00 0.01 0.01 0.00 0.00 0.00 0.01 0.01 0.00 0.00 0.00 0.00 0.00 0.00 0.00 0.01 0.01 0.01 0.01 0.01 0.01 0.01 0.01 0.00 0.01 0.01 0.01 0.01 0.03 0.03 0.03 0.03 0.02 0.01 0.00 0.00 0.00 0.00 0.00 0.01
0.01 0.00 0.00 0.00 0.00 0.00 0.01 0.01 0.01 0.00 0.01 0.01 0.00 0.00 0.00 0.00 0.00 0.00 0.00 0.01 0.02 0.03 0.02 0.03 0.03 0.01 0.01 0.01 0.01 0.01 0.01 0.02 0.04 0.03 0.03 0.03 0.03 0.02 0.01 0.00 0.01 0.01 0.00 0.01
0.03 0.01 0.01 0.01 0.01 0.00 0.01 0.02 0.02 0.02 0.02 0.01 0.00 0.00 0.00 0.00 0.00 0.00 0.00 0.01 0.03 0.04 0.04 0.04 0.03 0.01 0.00 0.00 0.01 0.02 0.02 0.03 0.05 0.03 0.02 0.03 0.03 0.02 0.01 0.01 0.00 0.00 0.00 0.01
0.03 0.03 0.02 0.01 0.01 0.01 0.01 0.01 0.02 0.01 0.01 0.00 0.00 0.00 0.00 0.00 0.00 0.00 0.00 0.01 0.02 0.02 0.03 0.04 0.02 0.01 0.00 0.00 0.00 0.01 0.03 0.03 0.05 0.03 0.03 0.03 0.03 0.02 0.02 0.01 0.01 0.00 0.00 0.00
0.03 0.02 0.01 0.01 0.01 0.01 0.02 0.01 0.01 0.01 0.01 0.00 0.00 0.00 0.00 0.00 0.00 0.00 0.00 0.00 0.00 0.01 0.01 0.03 0.02 0.00 0.00 0.00 0.00 0.02 0.03 0.03 0.04 0.05 0.04 0.04 0.03 0.03 0.02 0.02 0.01 0.00 0.00 0.01
0.03 0.02 0.01 0.01 0.01 0.01 0.01 0.01 0.02 0.03 0.02 0.01 0.00 0.00 0.00 0.00 0.00 0.00 0.00 0.00 0.00 0.00 0.00 0.02 0.02 0.01 0.01 0.00 0.00 0.02 0.04 0.03 0.03 0.03 0.04 0.04 0.03 0.03 0.02 0.02 0.01 0.00 0.00 0.01
0.03 0.03 0.02 0.02 0.03 0.03 0.02 0.03 0.03 0.03 0.02 0.01 0.00 0.00 0.00 0.00 0.00 0.00 0.00 0.00 0.00 0.00 0.00 0.00 0.01 0.02 0.01 0.00 0.00 0.01 0.03 0.03 0.02 0.02 0.02 0.02 0.03 0.03 0.02 0.01 0.01 0.00 0.00 0.01
0.03 0.04 0.04 0.03 0.03 0.03 0.03 0.03 0.04 0.04 0.02 0.01 0.00 0.00 0.00 0.00 0.00 0.00 0.00 0.00 0.00 0.00 0.01 0.01 0.02 0.02 0.01 0.01 0.01 0.01 0.01 0.03 0.03 0.02 0.02 0.02 0.02 0.02 0.02 0.01 0.00 0.00 0.01 0.01
0.03 0.05 0.05 0.05 0.04 0.04 0.05 0.04 0.03 0.03 0.03 0.02 0.01 0.00 0.00 0.00 0.00 0.00 0.00 0.00 0.00 0.00 0.01 0.02 0.02 0.02 0.02 0.01 0.01 0.01 0.01 0.01 0.02 0.02 0.02 0.01 0.01 0.02 0.01 0.00 0.01 0.01 0.01 0.01
0.05 0.05 0.04 0.04 0.03 0.03 0.03 0.03 0.03 0.03 0.03 0.02 0.01 0.00 0.00 0.00 0.00 0.00 0.00 0.00 0.00 0.01 0.01 0.01 0.01 0.01 0.02 0.02 0.02 0.01 0.01 0.02 0.02 0.02 0.02 0.01 0.01 0.01 0.01 0.00 0.01 0.01 0.01 0.02
0.06 0.05 0.02 0.02 0.02 0.02 0.02 0.02 0.02 0.03 0.02 0.01 0.00 0.00 0.00 0.00 0.00 0.00 0.00 0.00 0.00 0.00 0.01 0.01 0.01 0.02 0.03 0.03 0.02 0.02 0.01 0.02 0.02 0.02 0.02 0.01 0.01 0.02 0.01 0.01 0.01 0.01 0.02 0.03
0.05 0.04 0.02 0.01 0.01 0.01 0.02 0.01 0.01 0.01 0.01 0.01 0.00 0.00 0.00 0.00 0.00 0.00 0.00 0.00 0.00 0.00 0.00 0.01 0.01 0.02 0.03 0.02 0.02 0.02 0.01 0.01 0.02 0.02 0.02 0.02 0.02 0.02 0.01 0.01 0.01 0.02 0.02 0.04
0.04 0.03 0.03 0.02 0.01 0.01 0.01 0.01 0.01 0.01 0.01 0.01 0.01 0.01 0.00 0.00 0.01 0.00 0.00 0.00 0.00 0.00 0.00 0.00 0.01 0.02 0.02 0.02 0.02 0.02 0.01 0.01 0.02 0.02 0.02 0.02 0.02 0.02 0.02 0.02 0.02 0.03 0.04 0.04
0.05 0.04 0.04 0.03 0.03 0.03 0.01 0.00 0.01 0.01 0.01 0.01 0.01 0.01 0.01 0.01 0.01 0.01 0.01 0.00 0.00 0.00 0.00 0.00 0.01 0.01 0.02 0.02 0.02 0.02 0.02 0.02 0.02 0.02 0.02 0.02 0.02 0.03 0.04 0.04 0.04 0.04 0.05 0.04
0.04 0.06 0.07 0.04 0.03 0.02 0.01 0.00 0.00 0.01 0.02 0.01 0.01 0.01 0.01 0.01 0.01 0.01 0.01 0.00 0.00 0.00 0.00 0.00 0.00 0.01 0.01 0.02 0.02 0.02 0.02 0.02 0.01 0.02 0.03 0.03 0.03 0.04 0.05 0.05 0.04 0.04 0.04 0.04
0.02 0.05 0.08 0.06 0.04 0.02 0.01 0.00 0.00 0.01 0.03 0.02 0.01 0.02 0.02 0.02 0.01 0.01 0.00 0.00 0.00 0.00 0.00 0.00 0.00 0.00 0.00 0.01 0.01 0.01 0.01 0.01 0.01 0.02 0.03 0.03 0.03 0.04 0.04 0.05 0.05 0.04 0.04 0.05
0.03 0.05 0.06 0.05 0.03 0.02 0.01 0.01 0.01 0.02 0.03 0.01 0.01 0.01 0.01 0.01 0.01 0.00 0.00 0.00 0.00 0.00 0.00 0.00 0.00 0.00 0.00 0.00 0.00 0.01 0.01 0.01 0.01 0.01 0.02 0.02 0.02 0.03 0.03 0.04 0.04 0.03 0.04 0.05
0.02 0.02 0.03 0.03 0.03 0.02 0.01 0.01 0.01 0.02 0.01 0.01 0.01 0.01 0.01 0.00 0.00 0.00 0.00 0.00 0.00 0.00 0.00 0.00 0.00 0.00 0.00 0.00 0.00 0.00 0.00 0.00 0.01 0.01 0.01 0.01 0.02 0.02 0.02 0.02 0.03 0.03 0.03 0.04
0.02 0.02 0.02 0.02 0.02 0.02 0.01 0.01 0.01 0.01 0.01 0.01 0.01 0.01 0.01 0.01 0.01 0.00 0.00 0.00 0.00 0.00 0.00 0.00 0.00 0.00 0.00 0.00 0.00 0.00 0.00 0.00 0.01 0.01 0.01 0.01 0.01 0.01 0.02 0.02 0.02 0.03 0.03 0.03
0.02 0.02 0.02 0.02 0.02 0.02 0.02 0.02 0.01 0.01 0.01 0.01 0.01 0.01 0.01 0.01 0.01 0.01 0.00 0.00 0.00 0.00 0.00 0.00 0.00 0.00 0.00 0.00 0.00 0.00 0.00 0.01 0.01 0.01 0.01 0.02 0.02 0.02 0.02 0.02 0.02 0.02 0.02 0.03
0.01 0.02 0.02 0.02 0.02 0.02 0.02 0.02 0.02 0.01 0.01 0.01 0.01 0.01 0.01 0.01 0.01 0.01 0.01 0.01 0.00 0.00 0.00 0.00 0.00 0.00 0.00 0.00 0.00 0.00 0.01 0.01 0.01 0.01 0.01 0.02 0.02 0.02 0.02 0.02 0.02 0.02 0.03 0.03
0.01 0.01 0.01 0.02 0.01 0.02 0.01 0.01 0.01 0.01 0.01 0.01 0.01 0.01 0.01 0.01 0.01 0.01 0.01 0.01 0.01 0.01 0.00 0.00 0.00 0.00 0.00 0.00 0.00 0.01 0.01 0.01 0.01 0.01 0.01 0.01 0.02 0.02 0.02 0.02 0.02 0.03 0.04 0.04
MSLP
1009.46 1009.34 1009.22 1009.15 1009.14 1009.19 1009.30 1009.41 1009.46 1009.41 1009.22 1008.87 1008.39 1007.81 1007.19 1006.63 1006.18 1005.90 1005.81 1005.93 1006.23 1006.69 1007.26 1007.92 1008.62 1009.36 1010.12 1010.89 1011.67 1012.44 1013.19 1013.89 1014.52 1015.06 1015.50 1015.85 1016.11 1016.32 1016.49 1016.66 1016.83 1017.02 1017.23 1017.43
1009.17 1009.04 1008.93 1008.89 1008.94 1009.07 1009.24 1009.40 1009.48 1009.42 1009.17 1008.73 1008.13 1007.41 1006.66 1005.97 1005.42 1005.07 1004.95 1005.05 1005.36 1005.83 1006.42 1007.09 1007.81 1008.55 1009.32 1010.10 1010.90 1011.71 1012.50 1013.25 1013.94 1014.54 1015.04 1015.43 1015.72 1015.95 1016.14 1016.31 1016.50 1016.71 1016.93 1017.17
1008.82 1008.71 1008.65 1008.67 1008.79 1009.00 1009.24 1009.46 1009.56 1009.47 1009.17 1008.63 1007.90 1007.05 1006.17 1005.36 1004.71 1004.29 1004.13 1004.22 1004.53 1005.01 1005.61 1006.28 1006.99 1007.72 1008.48 1009.26 1010.06 1010.88 1011.70 1012.50 1013.25 1013.91 1014.46 1014.91 1015.25 1015.50 1015.71 1015.90 1016.09 1016.31 1016.55 1016.81
1008.43 1008.36 1008.35 1008.44 1008.65 1008.93 1009.25 1009.51 1009.63 1009.52 1009.15 1008.53 1007.69 1006.72 1005.72 1004.81 1004.10 1003.63 1003.44 1003.52 1003.83 1004.32 1004.91 1005.57 1006.26 1006.96 1007.68 1008.43 1009.21 1010.03 1010.86 1011.69 1012.49 1013.20 1013.82 1014.32 1014.72 1015.02 1015.25 1015.46 1015.66 1015.88 1016.12 1016.39
1008.06 1008.02 1008.05 1008.20 1008.47 1008.83 1009.20 1009.49 1009.61 1009.48 1009.06 1008.37 1007.44 1006.39 1005.32 1004.35 1003.59 1003.11 1002.92 1003.00 1003.32 1003.81 1004.40 1005.04 1005.69 1006.34 1007.00 1007.70 1008.43 1009.22 1010.05 1010.89 1011.71 1012.47 1013.15 1013.71 1014.16 1014.51 1014.79 1015.02 1015.23 1015.46 1015.70 1015.96
1007.74 1007.71 1007.76 1007.94 1008.24 1008.63 1009.02 1009.32 1009.44 1009.28 1008.83 1008.09 1007.13 1006.03 1004.93 1003.96 1003.20 1002.73 1002.56 1002.67 1003.01 1003.50 1004.08 1004.68 1005.29 1005.88 1006.47 1007.09 1007.76 1008.49 1009.29 1010.12 1010.95 1011.74 1012.46 1013.09 1013.60 1014.00 1014.32 1014.59 1014.83 1015.06 1015.31 1015.56
1007.54 1007.47 1007.51 1007.67 1007.96 1008.34 1008.71 1009.00 1009.09 1008.91 1008.43 1007.68 1006.71 1005.62 1004.55 1003.61 1002.90 1002.48 1002.35 1002.50 1002.86 1003.36 1003.92 1004.49 1005.03 1005.55 1006.06 1006.60 1007.19 1007.85 1008.59 1009.39 1010.21 1011.02 1011.77 1012.44 1013.01 1013.47 1013.85 1014.17 1014.44 1014.70 1014.96 1015.21
1007.50 1007.37 1007.34 1007.44 1007.68 1007.99 1008.31 1008.55 1008.59 1008.38 1007.89 1007.14 1006.20 1005.17 1004.16 1003.30 1002.67 1002.32 1002.26 1002.45 1002.84 1003.33 1003.87 1004.40 1004.88 1005.32 1005.74 1006.18 1006.68 1007.26 1007.93 1008.68 1009.48 1010.28 1011.05 1011.75 1012.37 1012.90 1013.34 1013.72 1014.05 1014.35 1014.63 1014.90
1007.67 1007.45 1007.33 1007.34 1007.47 1007.69 1007.92 1008.06 1008.04 1007.79 1007.29 1006.56 1005.68 1004.72 1003.81 1003.05 1002.52 1002.25 1002.26 1002.49 1002.88 1003.36 1003.87 1004.33 1004.74 1005.10 1005.44 1005.79 1006.20 1006.69 1007.29 1007.98 1008.73 1009.52 1010.29 1011.02 1011.68 1012.26 1012.77 1013.21 1013.60 1013.96 1014.29 1014.59
1008.06 1007.75 1007.53 1007.43 1007.45 1007.54 1007.64 1007.68 1007.57 1007.27 1006.76 1006.06 1005.24 1004.37 1003.57 1002.92 1002.49 1002.30 1002.35 1002.60 1002.98 1003.43 1003.87 1004.26 1004.59 1004.86 1005.11 1005.38 1005.70 1006.12 1006.65 1007.27 1007.98 1008.73 1009.49 1010.23 1010.92 1011.55 1012.11 1012.62 1013.09 1013.51 1013.90 1014.25
1008.68 1008.30 1008.00 1007.80 1007.70 1007.66 1007.63 1007.55 1007.34 1006.98 1006.45 1005.78 1005.02 1004.25 1003.55 1003.00 1002.65 1002.52 1002.59 1002.82 1003.16 1003.54 1003.89 1004.19 1004.42 1004.61 1004.77 1004.96 1005.21 1005.56 1006.02 1006.59 1007.25 1007.96 1008.70 1009.43 1010.13 1010.79 1011.40 1011.97 1012.49 1012.98 1013.43 1013.84
1009.46 1009.07 1008.72 1008.46 1008.26 1008.11 1007.95 1007.75 1007.45 1007.02 1006.47 1005.82 1005.12 1004.43 1003.82 1003.35 1003.06 1002.96 1003.02 1003.21 1003.46 1003.74 1003.98 1004.16 1004.29 1004.38 1004.46 1004.58 1004.77 1005.06 1005.47 1005.98 1006.59 1007.26 1007.97 1008.68 1009.37 1010.04 1010.67 1011.28 1011.86 1012.40 1012.91 1013.37
1010.36 1009.99 1009.66 1009.36 1009.11 1008.87 1008.61 1008.30 1007.92 1007.43 1006.87 1006.23 1005.58 1004.96 1004.43 1004.03 1003.78 1003.67 1003.70 1003.81 1003.96 1004.10 1004.21 1004.26 1004.27 1004.26 1004.26 1004.31 1004.45 1004.69 1005.06 1005.53 1006.09 1006.72 1007.38 1008.05 1008.72 1009.37 1010.01 1010.62 1011.22 1011.80 1012.35 1012.85
1011.27 1010.99 1010.70 1010.42 1010.14 1009.85 1009.52 1009.14 1008.69 1008.16 1007.59 1006.98 1006.38 1005.83 1005.36 1005.01 1004.78 1004.66 1004.63 1004.64 1004.67 1004.68 1004.64 1004.56 1004.44 1004.33 1004.25 1004.24 1004.33 1004.53 1004.85 1005.29 1005.81 1006.38 1007.00 1007.62 1008.24 1008.86 1009.46 1010.06 1010.66 1011.24 1011.80 1012.32
1012.10 1011.93 1011.72 1011.49 1011.22 1010.90 1010.53 1010.10 1009.61 1009.08 1008.51 1007.94 1007.40 1006.91 1006.52 1006.22 1006.00 1005.87 1005.78 1005.70 1005.61 1005.47 1005.29 1005.08 1004.84 1004.63 1004.47 1004.40 1004.44 1004.61 1004.90 1005.29 1005.76 1006.29 1006.85 1007.41 1007.98 1008.54 1009.09 1009.65 1010.21 1010.76 1011.30 1011.81
1012.76 1012.69 1012.57 1012.40 1012.15 1011.84 1011.46 1011.02 1010.52 1009.99 1009.46 1008.95 1008.48 1008.08 1007.76 1007.51 1007.33 1007.19 1007.05 1006.89 1006.70 1006.44 1006.14 1005.80 1005.47 1005.16 1004.93 1004.81 1004.80 1004.93 1005.17 1005.52 1005.95 1006.42 1006.92 1007.42 1007.92 1008.41 1008.90 1009.40 1009.90 1010.40 1010.89 1011.36
1013.17 1013.19 1013.13 1013.00 1012.79 1012.50 1012.13 1011.70 1011.23 1010.75 1010.28 1009.85 1009.48 1009.17 1008.94 1008.76 1008.62 1008.49 1008.33 1008.12 1007.84 1007.50 1007.10 1006.67 1006.25 1005.87 1005.58 1005.40 1005.34 1005.42 1005.63 1005.93 1006.30 1006.72 1007.16 1007.60 1008.03 1008.46 1008.87 1009.29 1009.72 1010.14 1010.57 1010.97
1013.28 1013.33 1013.31 1013.21 1013.02 1012.76 1012.42 1012.04 1011.63 1011.22 1010.85 1010.52 1010.26 1010.07 1009.93 1009.84 1009.75 1009.64 1009.48 1009.25 1008.94 1008.54 1008.08 1007.59 1007.11 1006.68 1006.33 1006.10 1005.99 1006.02 1006.18 1006.42 1006.74 1007.10 1007.48 1007.86 1008.24 1008.59 1008.95 1009.29 1009.64 1009.98 1010.32 1010.64
1013.09 1013.13 1013.11 1013.01 1012.84 1012.61 1012.33 1012.01 1011.69 1011.39 1011.14 1010.94 1010.80 1010.72 1010.69 1010.67 1010.65 1010.58 1010.43 1010.20 1009.88 1009.46 1008.97 1008.45 1007.94 1007.47 1007.09 1006.82 1006.67 1006.64 1006.74 1006.92 1007.18 1007.49 1007.81 1008.14 1008.45 1008.76 1009.05 1009.33 1009.61 1009.87 1010.12 1010.35
1012.64 1012.63 1012.57 1012.47 1012.32 1012.13 1011.92 1011.71 1011.50 1011.33 1011.21 1011.14 1011.13 1011.17 1011.23 1011.29 1011.31 1011.28 1011.16 1010.94 1010.62 1010.20 1009.72 1009.20 1008.68 1008.21 1007.80 1007.49 1007.30 1007.22 1007.25 1007.38 1007.57 1007.81 1008.08 1008.35 1008.63 1008.89 1009.13 1009.36 1009.57 1009.76 1009.93 1010.07
1012.01 1011.93 1011.84 1011.73 1011.61 1011.48 1011.37 1011.27 1011.20 1011.18 1011.20 1011.27 1011.37 1011.50 1011.63 1011.74 1011.80 1011.79 1011.68 1011.47 1011.17 1010.77 1010.31 1009.82 1009.31 1008.84 1008.43 1008.11 1007.87 1007.74 1007.71 1007.76 1007.88 1008.06 1008.27 1008.49 1008.72 1008.95 1009.15 1009.34 1009.50 1009.63 1009.73 1009.79
1011.31 1011.17 1011.05 1010.95 1010.88 1010.84 1010.84 1010.88 1010.97 1011.09 1011.25 1011.44 1011.64 1011.84 1012.01 1012.14 1012.20 1012.18 1012.07 1011.87 1011.57 1011.20 1010.77 1010.31 1009.84 1009.40 1009.00 1008.66 1008.39 1008.21 1008.11 1008.09 1008.14 1008.24 1008.38 1008.56 1008.74 1008.93 1009.10 1009.25 1009.37 1009.45 1009.49 1009.48
1010.65 1010.49 1010.37 1010.31 1010.31 1010.38 1010.51 1010.70 1010.94 1011.20 1011.49 1011.77 1012.04 1012.27 1012.45 1012.56 1012.59 1012.54 1012.40 1012.18 1011.89 1011.54 1011.14 1010.72 1010.30 1009.88 1009.50 1009.16 1008.87 1008.64 1008.48 1008.39 1008.35 1008.38 1008.45 1008.56 1008.70 1008.84 1008.98 1009.09 1009.17 1009.21 1009.20 1009.14
1010.17 1010.02 1009.95 1009.95 1010.05 1010.23 1010.50 1010.82 1011.20 1011.58 1011.96 1012.31 1012.61 1012.84 1012.98 1013.04 1013.01 1012.90 1012.71 1012.46 1012.16 1011.82 1011.45 1011.07 1010.69 1010.31 1009.95 1009.62 1009.31 1009.05 1008.83 1008.66 1008.55 1008.49 1008.49 1008.53 1008.61 1008.70 1008.79 1008.87 1008.91 1008.91 1008.86 1008.75
1009.97 1009.88 1009.87 1009.97 1010.16 1010.46 1010.84 1011.28 1011.75 1012.22 1012.65 1013.02 1013.31 1013.50 1013.59 1013.57 1013.45 1013.26 1013.01 1012.71 1012.38 1012.04 1011.70 1011.35 1011.01 1010.67 1010.34 1010.01 1009.69 1009.40 1009.13 1008.90 1008.71 1008.58 1008.50 1008.46 1008.47 1008.51 1008.55 1008.59 1008.59 1008.55 1008.46 1008.33
1010.13 1010.13 1010.21 1010.39 1010.68 1011.05 1011.50 1012.01 1012.52 1013.02 1013.46 1013.81 1014.05 1014.17 1014.17 1014.06 1013.85 1013.57 1013.24 1012.89 1012.53 1012.18 1011.84 1011.52 1011.21 1010.90 1010.59 1010.28 1009.96 1009.64 1009.33 1009.05 1008.80 1008.60 1008.44 1008.35 1008.29 1008.27 1008.26 1008.24 1008.21 1008.14 1008.02 1007.87
Thickness
5569 5573 5582 5590 5591 5597 5598 5600 5604 5606 5602 5603 5612 5621 5630 5633 5631 5634 5637 5638 5638 5638 5638 5635 5632 5630 5628 5626 5625 5625 5624 5623 5622 5623 5623 5624 5625 5625 5625 5624 5623 5623 5622 5622
5557 5566 5580 5579 5578 5578 5582 5586 5593 5594 5591 5594 5605 5614 5624 5627 5628 5630 5631 5633 5633 5631 5629 5627 5624 5623 5621 5620 5619 5617 5616 5615 5614 5615 5615 5616 5616 5617 5616 5615 5614 5614 5613 5613
5556 5565 5565 5564 5564 5566 5572 5578 5583 5584 5581 5583 5589 5611 5622 5624 5622 5621 5623 5625 5626 5624 5623 5620 5617 5616 5614 5613 5611 5609 5608 5607 5606 5606 5605 5605 5606 5607 5607 5607 5607 5606 5605 5604
5545 5551 5550 5553 5558 5561 5565 5569 5569 5568 5570 5581 5580 5597 5620 5617 5613 5613 5616 5617 5618 5616 5613 5611 5609 5608 5606 5604 5601 5599 5598 5598 5598 5597 5598 5599 5600 5601 5601 5600 5598 5597 5596 5595
5537 5539 5541 5545 5552 5552 5556 5554 5555 5556 5559 5563 5571 5573 5608 5606 5606 5609 5610 5609 5608 5605 5603 5602 5600 5598 5597 5594 5591 5590 5589 5589 5589 5589 5589 5590 5591 5592 5591 5589 5588 5588 5587 5585
5524 5526 5530 5537 5538 5539 5536 5538 5540 5543 5547 5551 5572 5571 5598 5603 5602 5602 5601 5599 5597 5593 5592 5591 5590 5588 5586 5584 5582 5580 5580 5579 5579 5580 5580 5580 5581 5581 5581 5580 5579 5578 5577 5576
5509 5514 5517 5521 5523 5523 5528 5534 5536 5536 5538 5558 5563 5564 5587 5593 5590 5589 5587 5587 5584 5582 5581 5580 5579 5578 5576 5574 5572 5571 5571 5571 5570 5571 5571 5571 5570 5570 5571 5570 5569 5568 5568 5566
5501 5510 5509 5513 5521 5521 5524 5532 5538 5543 5552 5561 5546 5559 5581 5575 5574 5574 5573 5573 5571 5570 5570 5569 5569 5567 5565 5563 5562 5561 5561 5561 5561 5560 5560 5559 5559 5559 5559 5558 5558 5557 5556 5556
5492 5501 5498 5501 5507 5514 5514 5521 5529 5528 5525 5537 5553 5558 5563 5562 5562 5563 5563 5562 5561 5560 5559 5557 5556 5555 5554 5553 5551 5551 5551 5551 5551 5550 5549 5549 5548 5547 5547 5546 5546 5545 5545 5544
5473 5478 5487 5487 5493 5496 5506 5513 5509 5513 5521 5537 5550 5553 5563 5555 5554 5553 5553 5551 5550 5548 5547 5545 5545 5544 5543 5541 5540 5540 5541 5541 5540 5539 5538 5538 5537 5536 5535 5535 5535 5534 5533 5531
5459 5463 5472 5478 5484 5492 5490 5493 5500 5508 5514 5528 5540 5550 5546 5545 5543 5541 5540 5539 5538 5537 5536 5534 5534 5533 5531 5530 5530 5530 5530 5530 5530 5528 5527 5527 5526 5525 5524 5524 5523 5522 5521 5519
5448 5455 5463 5469 5468 5474 5485 5489 5490 5496 5497 5507 5525 5534 5528 5529 5527 5526 5527 5526 5526 5525 5524 5523 5521 5521 5521 5521 5520 5519 5520 5520 5519 5517 5516 5516 5515 5514 5513 5513 5512 5510 5509 5509
5439 5442 5452 5459 5455 5453 5461 5467 5471 5476 5483 5494 5508 5519 5512 5514 5514 5513 5513 5513 5513 5512 5511 5511 5510 5511 5510 5510 5509 5509 5509 5508 5508 5507 5506 5505 5504 5502 5502 5501 5500 5499 5498 5497
5432 5432 5445 5460 5462 5455 5452 5455 5457 5463 5473 5483 5496 5506 5503 5502 5502 5501 5500 5500 5500 5498 5498 5497 5497 5499 5499 5498 5498 5497 5497 5496 5495 5494 5494 5493 5492 5492 5491 5490 5489 5488 5487 5486
5419 5424 5427 5436 5440 5443 5447 5451 5452 5453 5466 5473 5487 5488 5492 5491 5490 5487 5486 5486 5484 5484 5483 5483 5484 5486 5487 5487 5486 5485 5485 5484 5483 5483 5482 5482 5481 5481 5480 5479 5478 5478 5477 5475
5403 5411 5414 5421 5427 5432 5437 5448 5451 5453 5457 5460 5466 5472 5478 5475 5474 5473 5473 5471 5471 5470 5470 5470 5471 5472 5474 5474 5474 5473 5473 5472 5472 5472 5472 5471 5471 5471 5470 5469 5468 5468 5467 5466
5395 5397 5406 5420 5416 5419 5432 5443 5446 5449 5454 5457 5461 5467 5461 5460 5458 5458 5457 5456 5455 5455 5456 5456 5458 5459 5460 5460 5461 5462 5462 5461 5461 5461 5461 5461 5461 5460 5460 5459 5458 5458 5458 5457
5383 5388 5396 5403 5401 5409 5437 5434 5436 5439 5440 5442 5446 5447 5447 5447 5444 5442 5442 5443 5443 5443 5443 5444 5445 5445 5446 5447 5449 5450 5450 5450 5450 5451 5451 5451 5450 5450 5450 5449 5450 5450 5450 5449
5379 5380 5387 5394 5402 5415 5421 5419 5419 5422 5428 5430 5431 5432 5432 5430 5430 5432 5429 5429 5429 5429 5430 5431 5432 5432 5434 5436 5437 5438 5439 5439 5439 5440 5441 5440 5439 5440 5440 5440 5441 5441 5441 5442
5365 5368 5377 5383 5393 5405 5414 5410 5407 5412 5420 5421 5420 5420 5419 5419 5427 5425 5418 5416 5416 5416 5417 5417 5418 5420 5423 5425 5425 5427 5428 5429 5429 5429 5429 5429 5429 5430 5431 5431 5432 5432 5432 5433
5357 5361 5366 5375 5383 5398 5397 5395 5397 5405 5412 5409 5410 5409 5409 5412 5414 5410 5405 5404 5404 5405 5405 5405 5407 5409 5411 5412 5414 5416 5418 5418 5418 5418 5419 5420 5420 5421 5422 5422 5423 5423 5424 5425
5361 5364 5362 5368 5372 5384 5385 5383 5390 5395 5395 5397 5398 5397 5396 5396 5395 5394 5393 5393 5393 5393 5394 5394 5396 5398 5400 5401 5403 5405 5407 5407 5408 5409 5410 5411 5411 5412 5412 5414 5414 5415 5416 5417
5354 5359 5365 5366 5371 5372 5371 5374 5377 5380 5382 5385 5385 5384 5384 5383 5383 5382 5382 5383 5383 5383 5383 5384 5385 5388 5390 5391 5392 5395 5396 5397 5398 5399 5401 5402 5402 5403 5404 5405 5406 5407 5408 5409
5343 5342 5349 5352 5358 5360 5360 5362 5363 5366 5369 5371 5371 5371 5371 5371 5371 5371 5371 5372 5372 5372 5373 5374 5375 5378 5380 5380 5381 5383 5384 5386 5388 5390 5391 5393 5394 5395 5396 5397 5398 5399 5400 5401
5339 5337 5341 5345 5349 5351 5352 5351 5353 5354 5356 5357 5358 5359 5359 5359 5359 5359 5360 5360 5361 5362 5363 5364 5365 5367 5369 5370 5371 5372 5374 5376 5378 5381 5382 5384 5385 5387 5388 5389 5389 5391 5392 5392
5326 5329 5336 5343 5343 5344 5343 5342 5342 5343 5345 5345 5346 5346 5346 5347 5347 5348 5349 5349 5350 5351 5352 5353 5355 5357 5358 5360 5362 5363 5365 5366 5369 5371 5374 5375 5377 5378 5379 5381 5383 5383 5384 5385